Theta_e
344 347 349 347 348 349 349 349 350 350 351 353 356 358 360 361 359 359 358 353 347 343 342 341 340 340 338 338 335 334 333 334 333 334 335 336 336 336 337 337 337 340 341 339 337 337 341 345 347 347 344 340 338 339 340 340 341 343 344 345 348 349 350
342 346 349 347 348 349 348 349 350 350 350 353 359 360 361 362 360 358 358 355 348 343 340 339 340 340 338 337 336 334 334 334 334 334 335 335 335 335 336 336 336 338 339 340 339 337 337 341 344 347 348 345 340 338 339 339 340 341 343 343 345 347 347
342 342 346 347 348 350 350 351 351 351 351 353 358 361 362 362 360 359 358 356 352 347 341 337 338 338 337 336 335 335 334 334 334 335 335 334 334 334 334 336 338 339 339 340 342 341 340 341 341 345 348 347 342 338 338 340 341 341 342 341 342 344 343
345 343 343 346 349 350 350 352 352 352 353 354 358 362 362 361 360 359 358 357 355 350 343 338 336 337 336 335 335 335 334 333 334 333 334 333 333 334 334 336 339 341 343 342 343 344 345 345 344 343 345 344 342 338 335 338 341 342 343 343 342 341 340
346 343 342 345 348 348 348 350 353 356 355 356 360 363 363 362 361 360 360 359 356 348 342 338 337 336 337 336 335 334 333 334 333 333 334 333 334 335 335 336 339 342 344 343 342 343 345 347 347 345 345 343 342 340 336 337 339 343 344 344 344 342 338
347 345 343 343 346 348 346 345 350 356 356 353 359 364 364 362 363 362 363 364 360 353 346 342 339 337 338 337 335 334 333 333 333 333 333 334 334 336 335 337 340 341 343 344 343 343 342 345 346 347 347 344 342 342 339 336 337 339 342 343 344 343 338
347 345 342 341 344 348 348 348 350 355 356 354 357 363 365 363 363 363 365 367 364 360 353 347 343 339 338 337 335 335 334 333 333 333 333 334 335 337 336 337 340 341 343 344 345 345 344 342 342 345 347 346 344 343 340 338 336 336 338 340 341 342 340
345 342 340 342 344 347 348 349 350 351 351 353 356 362 364 364 363 363 365 368 367 365 360 352 347 341 338 336 336 336 335 334 333 333 333 334 335 335 337 338 340 341 344 347 347 347 345 342 341 343 347 348 346 344 342 340 339 337 338 337 336 338 339
343 342 339 341 344 346 347 346 346 345 346 349 354 361 364 364 364 364 365 367 368 368 364 357 350 346 341 339 337 336 336 335 333 334 333 334 334 335 336 338 339 340 343 346 348 349 348 346 344 342 343 347 347 346 344 342 341 341 341 340 337 336 336
342 344 339 341 344 344 346 346 348 349 349 352 356 362 366 365 364 364 364 366 367 368 367 362 357 352 345 342 339 337 337 336 335 334 334 333 333 334 335 334 337 339 340 343 347 350 349 349 349 345 341 344 348 348 346 344 342 342 342 343 341 337 335
342 343 340 340 343 345 347 350 352 354 354 357 360 363 366 365 365 365 365 366 367 368 368 367 364 359 352 344 342 339 337 337 336 335 334 335 334 334 334 334 336 338 339 340 344 349 350 350 351 349 344 341 343 347 346 346 344 343 343 343 343 341 337
344 343 341 341 343 343 344 345 349 350 353 359 362 364 364 365 366 365 365 365 366 366 368 367 366 364 358 350 344 341 339 336 336 337 335 334 335 334 335 336 338 339 339 339 341 344 349 352 349 348 346 340 340 343 345 345 346 345 344 344 345 345 340
347 346 343 342 344 343 341 343 347 350 352 357 362 362 364 366 365 365 365 366 365 366 367 367 365 364 362 357 350 346 343 338 337 339 338 335 335 337 339 339 339 343 344 343 342 342 345 350 350 347 346 343 342 343 344 344 345 346 346 346 347 348 345
346 347 346 346 346 345 343 344 350 355 356 359 362 362 363 364 365 365 365 365 365 364 365 365 364 362 363 362 358 352 346 340 336 338 339 338 336 338 343 344 344 347 349 349 349 346 345 349 352 351 348 347 345 345 345 345 345 346 347 347 348 350 349
343 346 348 348 349 346 344 347 354 358 359 362 363 362 363 363 364 365 364 364 365 365 364 364 363 363 362 362 362 357 351 345 340 338 338 339 340 339 342 344 346 348 350 352 354 353 352 351 353 355 354 352 350 348 349 349 346 346 347 346 347 348 350
341 342 344 346 347 346 345 352 357 358 359 362 362 361 361 362 363 364 363 364 364 364 363 363 362 362 361 361 361 359 356 351 346 341 339 338 339 339 339 342 346 349 349 352 353 355 357 356 355 356 357 357 356 354 353 351 349 346 345 345 344 344 346
339 340 342 342 341 338 339 345 352 356 358 359 360 361 361 359 361 363 363 363 363 363 363 362 362 360 360 360 360 360 359 356 351 346 341 338 338 338 339 341 344 347 350 352 353 354 356 357 357 356 357 358 359 358 356 353 350 346 343 342 342 342 343
335 338 342 346 346 344 343 342 341 342 347 349 352 356 359 359 359 360 361 361 361 361 361 361 362 361 359 360 360 361 360 357 355 350 344 340 339 338 339 341 343 346 348 351 353 354 354 356 358 357 356 357 359 360 359 356 352 348 344 341 340 341 342
335 334 337 343 348 349 349 352 351 347 349 351 352 352 354 357 358 358 359 359 359 360 361 360 361 361 361 360 360 361 361 359 357 354 347 342 341 340 341 342 343 343 346 349 352 354 354 354 355 355 355 356 358 359 360 359 356 352 348 345 342 340 342
332 334 336 335 338 340 342 348 355 354 351 354 355 354 352 354 357 358 357 356 357 359 359 359 359 359 361 360 360 362 362 361 358 356 353 348 345 346 346 344 342 343 345 348 350 352 353 352 353 354 354 353 354 357 359 359 358 355 352 348 345 342 342
333 335 336 333 337 345 346 345 348 350 351 349 349 354 357 355 354 357 357 356 356 356 357 358 358 358 360 360 361 361 361 362 361 358 357 355 352 351 349 346 345 345 346 349 351 351 352 352 352 353 353 352 352 354 357 358 358 357 354 351 349 346 344
336 333 332 337 345 352 352 348 346 347 347 345 341 344 352 355 355 355 355 355 355 354 357 357 356 357 358 359 361 361 362 362 361 361 360 359 358 356 353 351 349 348 348 350 352 354 355 354 353 354 354 355 354 353 353 356 358 358 357 355 353 354 352
348 343 342 346 351 354 352 349 349 348 347 347 345 344 345 348 351 353 353 354 355 355 355 356 356 355 356 358 360 360 362 362 362 362 361 361 360 358 356 355 353 352 352 351 353 356 356 356 355 355 355 357 356 354 351 351 356 359 360 359 359 359 359
355 353 353 355 357 359 354 348 350 352 349 348 348 349 347 345 345 350 352 352 354 354 354 354 355 355 355 356 359 360 361 362 361 362 362 361 362 361 360 358 358 357 356 355 354 354 356 357 358 357 356 357 356 356 353 352 353 356 360 362 362 361 361
356 356 356 360 362 360 350 345 348 348 345 349 353 354 354 349 343 344 349 352 351 353 354 354 354 356 356 355 358 359 360 361 361 362 362 362 362 364 364 361 359 360 359 358 356 356 356 359 360 359 360 358 358 357 357 356 356 355 357 361 363 363 363
356 355 358 359 359 355 344 344 357 359 357 363 366 363 362 359 351 346 345 350 352 351 353 353 353 355 356 356 357 359 359 360 361 361 362 363 364 365 365 362 361 361 361 360 359 358 358 359 360 362 363 363 362 360 359 360 360 358 358 358 360 362 363
354 356 356 354 356 356 348 350 363 363 359 363 366 363 363 361 357 352 347 348 352 352 352 353 353 352 355 355 356 358 359 361 361 361 363 365 367 366 365 363 362 362 362 362 362 360 359 359 361 363 363 364 365 364 362 362 363 361 360 358 359 361 362
355 357 354 350 356 359 355 355 364 365 363 366 365 364 365 362 358 357 352 348 352 352 351 353 353 352 355 355 356 358 359 361 361 362 365 366 368 367 366 364 363 363 363 364 363 363 362 361 361 362 364 364 365 365 365 365 364 363 362 361 362 363 363
354 355 354 352 357 359 355 357 364 366 365 364 361 359 361 363 362 360 356 352 353 354 353 353 354 355 354 354 356 357 359 361 362 364 366 368 368 367 365 365 365 365 366 365 365 364 363 363 362 362 363 364 364 365 365 365 365 364 363 364 364 364 364
352 353 353 354 357 357 354 357 363 363 362 362 360 354 350 356 363 362 359 357 357 356 356 355 355 356 356 354 356 357 359 361 364 365 368 369 368 367 367 367 367 367 367 367 366 366 366 365 365 364 364 364 364 364 364 365 365 365 365 364 365 364 364
351 352 353 353 355 355 353 356 360 360 358 360 362 357 352 358 365 365 362 362 360 358 357 356 356 359 357 355 357 357 359 363 366 368 370 369 369 369 369 369 369 369 367 367 367 366 366 365 366 365 365 364 364 364 364 363 364 364 364 363 363 363 362
351 351 351 352 354 353 352 355 357 357 357 359 361 361 360 364 368 367 367 367 364 362 360 357 359 361 360 360 362 362 361 364 367 370 370 369 369 369 369 369 369 368 368 368 368 366 365 365 366 367 366 365 364 363 363 363 362 362 363 363 362 362 361
350 351 351 352 353 353 353 355 356 355 357 358 358 359 360 363 365 365 366 366 365 364 361 359 363 365 364 365 367 366 366 368 369 369 369 368 368 368 368 368 368 368 367 367 366 366 365 365 365 366 366 366 365 363 363 363 362 362 362 362 362 362 362
349 350 351 351 351 351 354 355 355 356 356 356 355 356 358 359 359 361 363 364 365 365 363 363 367 369 367 367 369 368 367 368 369 369 368 368 367 367 367 367 366 366 368 367 366 366 365 364 365 365 365 365 364 363 362 362 362 362 362 362 362 361 361
347 348 349 350 349 349 351 354 354 354 354 354 354 354 356 356 356 358 361 362 364 366 366 364 365 368 367 367 367 367 367 367 367 368 367 367 367 366 366 365 365 366 366 367 366 366 365 365 365 364 364 363 362 362 363 363 363 363 362 362 362 361 361
345 347 349 349 349 349 351 352 353 354 353 353 352 353 354 354 354 355 357 359 362 366 367 364 364 365 366 365 366 365 366 367 366 366 366 366 365 365 365 364 364 365 364 365 365 365 365 366 366 365 365 364 362 362 362 362 363 363 362 362 362 361 361
345 347 348 348 348 350 351 351 352 352 352 351 352 352 352 352 352 354 356 358 361 364 366 365 366 367 366 365 365 365 364 365 364 364 365 366 365 364 364 365 366 366 365 364 364 364 364 364 364 364 364 363 363 363 363 362 362 361 361 361 361 360 360
346 347 347 348 348 349 349 350 351 351 351 351 351 351 350 350 350 352 354 357 359 361 363 364 366 366 366 365 364 364 364 365 364 363 364 366 365 363 363 363 364 364 362 361 362 363 362 363 363 363 362 362 362 361 359 359 358 358 358 358 357 356 356
Wind_Speed
30 35 38 34 35 37 37 39 39 39 40 41 45 47 45 45 46 46 47 48 47 46 45 44 43 43 43 42 40 39 38 37 36 35 34 33 33 32 31 30 29 28 27 26 26 25 24 23 21 20 20 20 18 19 19 18 17 15 15 14 14 15 15
30 33 41 40 39 42 42 40 38 38 39 40 44 46 45 45 47 48 48 48 48 46 45 44 43 43 43 42 41 40 39 38 37 36 35 34 34 33 33 32 31 30 28 27 26 24 24 24 23 21 21 21 19 18 19 18 18 17 17 16 15 16 15
33 31 37 41 42 44 44 44 42 42 43 44 46 47 47 48 49 50 49 49 49 47 45 44 44 43 43 42 41 40 40 39 39 38 37 36 36 35 34 33 32 31 30 28 27 25 24 24 24 23 23 24 22 20 19 19 19 19 19 18 17 18 17
38 33 32 37 41 43 43 45 46 45 46 47 49 49 49 49 49 49 49 48 49 48 47 45 44 44 43 43 42 41 41 40 40 39 39 38 37 36 36 35 34 33 31 30 29 27 25 24 24 24 25 26 25 23 21 20 20 20 20 20 20 20 19
40 35 32 32 38 42 41 41 43 44 43 44 46 48 47 46 45 45 46 47 48 47 46 45 45 45 45 44 43 42 42 41 41 41 40 40 39 37 37 36 35 34 33 31 30 29 28 26 25 24 25 26 27 26 24 22 21 21 21 22 22 21 21
38 34 32 31 34 40 39 37 39 40 38 39 42 44 43 41 42 42 42 44 47 46 45 46 46 46 46 45 44 44 43 42 42 42 42 41 40 39 39 38 36 36 34 33 31 30 29 28 27 26 26 27 27 27 27 25 24 24 23 23 23 22 22
37 34 33 34 33 36 36 34 35 36 36 36 38 39 40 40 41 40 39 41 44 46 46 47 47 47 46 46 45 45 44 44 43 43 43 42 41 40 39 39 38 36 35 33 32 31 30 30 30 29 28 27 27 28 28 27 27 27 26 26 25 24 23
37 36 34 34 34 35 35 34 32 32 34 35 37 38 39 40 40 40 39 39 41 43 45 47 47 47 47 46 46 46 45 45 44 44 44 43 43 42 41 39 38 37 35 33 33 32 31 31 31 31 30 29 28 28 28 27 27 28 28 28 28 27 25
35 40 35 32 34 34 34 34 33 31 29 32 38 40 39 39 40 41 41 39 39 41 44 45 46 47 47 47 47 47 46 46 45 45 45 45 44 44 42 41 39 38 36 35 33 33 33 32 31 32 32 31 30 30 29 29 29 28 29 29 29 29 28
32 40 34 30 32 33 33 34 35 35 32 34 39 41 40 40 40 40 41 40 40 41 42 43 44 45 46 47 47 47 47 46 46 46 46 46 46 45 43 43 42 40 39 37 36 34 33 33 32 32 33 32 32 32 31 31 31 31 31 31 31 30 29
33 41 35 29 28 32 35 34 34 37 37 37 40 39 39 40 39 39 40 41 40 40 40 41 41 42 45 46 47 48 48 48 47 47 47 47 46 45 44 44 43 42 40 39 38 35 34 33 34 33 34 34 33 33 34 33 33 34 34 34 34 33 32
30 37 36 30 26 29 31 30 30 31 32 36 38 37 38 39 37 37 38 39 39 38 39 40 40 40 42 45 47 47 48 49 48 48 48 47 46 45 44 44 43 42 41 40 39 37 35 35 35 35 35 35 35 35 35 35 35 35 36 35 36 36 34
23 26 29 26 24 28 30 28 28 28 30 37 39 36 36 37 36 36 37 38 37 36 37 39 39 40 41 42 44 46 47 49 48 48 48 47 46 44 43 43 43 41 40 40 39 38 37 36 36 37 37 37 36 36 36 36 36 36 36 36 36 36 36
21 20 21 18 17 24 28 26 26 30 34 38 38 35 34 34 34 35 35 36 36 35 36 38 39 40 41 40 42 43 46 47 47 47 47 46 46 44 42 42 41 40 38 37 38 38 38 37 36 37 38 38 37 37 36 36 37 37 37 38 37 36 36
20 18 17 16 13 19 25 23 23 29 33 35 35 34 33 32 33 35 35 34 35 35 35 36 39 40 41 41 42 42 44 45 45 46 46 46 46 45 44 42 41 40 39 38 37 37 36 36 35 35 37 37 38 38 37 37 38 38 38 38 39 38 37
20 19 17 16 15 19 24 22 21 26 29 30 32 32 31 32 33 34 34 33 34 35 35 35 38 40 41 42 43 42 42 43 43 44 45 46 46 46 45 44 42 40 40 40 39 37 36 35 34 35 36 37 37 38 38 39 39 40 40 40 39 39 39
17 24 23 21 19 21 24 22 21 24 26 28 30 30 30 31 31 32 32 32 33 34 34 34 37 41 42 42 42 42 41 42 43 43 43 45 45 46 45 45 44 42 41 41 40 39 38 37 36 36 36 36 38 39 39 40 40 40 40 40 40 40 40
8 15 22 24 24 23 22 23 23 23 24 26 28 29 30 30 29 29 30 31 31 32 33 34 37 40 43 42 41 42 42 42 42 42 43 43 44 45 45 45 44 44 43 42 42 41 41 40 39 38 37 37 38 39 40 40 40 40 40 40 40 40 40
3 2 9 17 20 20 19 21 23 21 20 21 23 25 27 28 28 29 29 29 30 30 32 35 36 38 42 43 43 43 43 43 43 43 43 43 43 43 44 45 45 45 45 44 43 42 43 43 42 41 39 39 39 40 40 40 40 40 39 39 39 39 39
3 4 3 5 7 9 9 13 17 15 13 15 17 19 23 24 26 28 28 27 29 31 33 35 35 36 39 43 44 44 43 43 43 44 44 43 43 43 43 45 45 45 45 44 43 44 45 45 44 43 42 41 41 42 42 41 41 41 40 39 38 37 38
6 6 5 5 2 4 7 10 11 7 5 8 10 13 18 22 22 25 26 27 29 31 32 34 36 35 36 40 44 44 43 43 43 43 43 43 43 43 43 44 45 45 45 45 44 45 46 46 46 45 44 43 43 44 44 44 44 43 42 41 40 38 38
4 8 10 6 5 9 8 7 6 3 3 7 8 7 12 18 20 22 24 25 28 30 32 33 35 37 36 38 42 44 43 43 43 43 43 43 43 44 44 45 45 44 44 45 44 44 45 46 46 46 46 45 44 45 46 45 46 45 45 45 43 40 40
8 4 1 5 11 11 5 2 2 2 4 7 8 7 8 12 16 19 22 24 25 28 30 31 34 38 38 37 39 43 43 43 43 43 42 43 44 45 46 46 45 44 44 44 44 44 44 45 46 46 46 46 45 46 47 47 46 46 46 46 45 43 42
16 14 13 13 14 10 4 2 2 4 4 4 7 8 10 11 13 15 20 23 24 25 28 31 34 37 40 38 38 40 42 42 42 43 43 43 44 45 45 45 44 43 43 43 44 44 44 43 43 44 46 46 47 47 48 48 47 47 45 44 44 44 44
14 13 13 12 10 5 1 3 4 4 3 4 4 6 8 11 13 14 17 21 23 24 27 31 34 35 38 39 37 37 40 42 42 43 44 44 44 43 43 43 42 42 42 42 43 43 42 41 40 42 43 45 46 46 47 46 46 46 46 44 43 43 44
12 11 11 11 8 5 5 7 7 5 5 5 5 6 5 8 12 15 17 18 20 24 27 29 32 33 34 36 36 35 37 40 41 42 42 42 42 41 40 40 40 39 39 40 41 41 40 40 39 39 39 40 41 42 44 44 43 43 45 45 44 44 44
11 10 10 11 11 10 8 8 6 5 5 6 7 5 3 6 10 15 18 18 19 23 25 25 27 30 32 34 36 36 35 37 40 40 40 39 38 38 38 37 37 37 37 38 38 38 38 38 37 36 35 35 35 36 38 38 38 39 41 41 42 43 43
12 11 11 12 11 9 9 8 7 6 5 6 6 3 2 4 7 12 17 18 18 21 22 21 23 27 31 33 34 35 35 35 37 37 37 36 34 34 35 34 34 34 34 35 34 34 34 35 35 35 34 33 33 33 33 33 34 35 36 37 38 38 39
12 12 12 11 9 9 10 8 6 6 6 7 9 8 6 4 6 9 13 15 16 17 18 18 18 22 28 31 32 35 34 33 34 35 34 33 33 33 32 32 32 32 32 32 31 30 31 32 32 33 33 32 32 32 31 30 31 32 33 33 33 34 35
12 12 10 10 9 10 9 8 6 7 7 8 12 11 8 7 6 5 7 11 13 14 17 16 14 17 25 29 30 32 33 30 30 31 30 30 30 30 30 29 29 29 29 29 29 29 29 29 30 31 32 31 30 29 28 28 28 29 30 30 29 30 30
12 11 10 9 10 10 8 6 7 8 8 7 10 11 5 4 3 1 5 10 11 12 16 16 11 13 21 26 27 29 30 27 26 26 26 26 27 27 27 26 26 26 27 27 28 28 28 27 28 29 29 28 27 25 24 25 25 25 26 26 27 28 28
11 10 10 10 11 11 9 7 7 8 8 6 6 7 4 3 4 3 7 9 9 12 16 15 11 11 18 21 22 24 26 25 24 23 23 23 23 23 24 23 22 23 24 25 26 26 25 25 25 26 26 25 24 23 22 22 21 21 22 23 24 25 26
10 9 9 9 9 9 8 7 6 6 6 4 2 3 5 3 2 3 4 4 6 10 14 15 11 11 16 18 17 18 21 22 22 21 21 22 22 21 21 20 20 21 22 22 23 23 22 23 23 22 22 22 21 21 21 20 18 18 21 23 24 24 24
9 8 9 9 7 6 7 7 5 5 5 5 4 2 2 1 0 2 5 7 6 6 11 15 13 11 13 15 14 15 18 19 19 19 19 20 20 19 19 19 19 20 21 21 21 21 21 21 21 20 20 19 19 18 18 17 18 21 23 25 24 22 23
9 9 9 9 7 6 6 6 5 4 4 4 4 3 1 1 1 1 5 8 9 7 7 12 13 11 12 13 13 14 15 17 18 17 17 18 19 18 20 20 19 20 22 23 22 21 21 20 20 20 19 19 19 18 16 16 19 21 22 22 21 19 18
9 8 7 7 5 4 3 3 3 4 3 3 3 2 1 1 0 1 2 4 7 7 7 10 12 11 11 12 13 14 14 15 17 17 16 19 21 20 20 20 19 19 21 22 23 22 21 19 19 20 20 20 19 18 17 16 16 17 17 18 19 20 20
6 6 5 4 4 3 2 2 3 3 3 2 2 2 1 1 1 3 6 5 6 8 10 12 13 13 14 14 14 16 16 15 17 17 15 16 22 24 23 21 18 15 14 16 18 20 20 19 18 18 18 18 18 18 18 18 18 19 20 22 24 26 27
4 4 3 2 2 2 1 1 1 2 1 1 2 2 1 1 1 4 7 9 9 10 11 12 12 12 15 16 16 17 16 15 18 18 12 10 18 24 25 23 19 14 10 10 11 12 15 16 17 18 18 18 19 19 18 18 18 20 22 24 27 29 31
Wind_Direction
190 178 176 185 190 192 195 196 200 203 203 202 202 202 200 197 196 197 199 201 203 204 204 206 207 209 212 214 217 219 219 220 221 220 218 217 219 220 221 226 228 226 226 228 230 230 230 231 228 229 236 237 232 228 231 232 231 229 228 228 226 228 233
190 181 178 186 193 197 202 201 200 201 202 204 204 203 202 198 198 199 200 202 203 204 205 206 208 209 213 215 217 219 220 220 221 220 220 219 220 222 223 226 229 230 230 231 233 234 233 231 228 227 232 239 239 231 230 233 233 231 231 229 226 229 234
186 190 183 181 185 192 199 199 199 198 201 206 206 204 203 200 200 201 201 202 202 203 206 207 209 211 214 217 218 220 221 221 221 221 221 222 222 223 224 226 227 230 231 230 230 232 234 233 229 225 227 236 242 238 233 233 234 232 230 232 230 230 235
183 193 187 177 176 183 191 194 197 197 199 205 206 204 203 201 201 202 202 204 204 204 207 208 209 212 214 217 218 220 221 221 222 223 224 225 225 224 225 225 225 227 229 230 228 227 229 233 232 227 225 230 238 243 241 235 234 233 229 231 232 231 236
180 188 185 178 176 180 186 188 192 194 196 204 206 203 202 201 200 201 202 205 208 210 211 210 210 211 213 216 218 219 221 222 222 223 224 225 225 226 226 225 225 225 226 230 230 227 226 229 232 231 227 228 233 240 243 239 236 235 231 230 232 233 236
173 182 184 184 180 179 184 187 189 190 193 205 209 203 201 200 199 200 201 204 209 212 213 213 212 212 212 215 218 219 221 222 222 223 225 225 225 226 227 226 225 225 227 229 231 231 228 227 229 231 230 229 230 233 238 241 239 237 236 233 234 236 237
170 179 184 186 182 176 182 187 188 188 190 202 212 206 199 199 198 198 199 201 207 211 212 213 213 214 214 215 218 219 220 221 222 223 224 225 225 226 227 227 226 226 228 228 230 231 231 229 228 229 231 231 230 230 235 240 241 241 240 238 239 238 238
175 178 183 185 178 172 179 184 183 185 188 198 211 210 201 198 198 198 199 200 203 207 211 214 215 215 216 217 218 219 220 222 222 223 225 226 226 226 227 227 227 227 227 227 229 230 232 233 231 228 228 230 232 232 233 237 240 242 241 241 242 240 239
180 174 181 182 173 170 177 181 181 185 192 199 208 209 202 198 198 198 199 200 199 202 208 214 216 217 216 217 218 219 220 223 224 224 225 226 227 228 228 228 229 228 227 226 228 229 229 232 232 231 229 228 231 233 233 235 237 239 241 241 242 242 242
175 166 176 182 175 174 177 179 183 191 196 198 203 204 201 199 199 198 199 200 200 201 205 210 213 216 217 216 217 219 220 222 223 224 226 226 228 229 230 231 232 231 230 228 227 228 229 230 230 233 233 230 229 232 233 233 234 236 238 240 242 244 244
161 158 171 183 173 165 169 176 183 190 194 196 199 201 201 201 200 200 200 200 201 200 201 204 205 211 217 218 218 220 221 222 223 225 226 227 228 230 231 232 233 233 233 231 229 228 229 229 229 230 234 234 231 231 233 233 233 234 235 237 240 243 244
153 158 168 177 169 165 175 181 183 187 192 195 199 201 202 203 201 202 203 202 202 201 200 201 201 204 213 219 220 220 221 224 224 224 227 229 229 231 231 231 232 233 235 235 233 230 228 229 230 230 232 237 236 234 233 233 232 233 234 235 235 239 242
126 147 160 168 170 179 190 190 186 189 193 196 199 200 202 203 202 203 205 204 203 202 201 201 201 203 208 215 219 219 220 224 225 223 226 229 230 229 228 229 230 231 232 235 235 235 232 230 231 233 234 236 238 236 235 234 233 233 234 234 233 235 239
110 125 146 157 160 172 183 187 186 189 194 196 198 199 201 203 203 205 206 205 204 204 203 202 203 204 206 210 215 216 218 223 225 224 224 227 229 227 224 225 227 226 226 229 232 235 235 231 229 233 235 235 238 238 236 235 235 234 234 233 232 233 235
123 122 138 149 147 157 174 188 190 188 192 195 195 198 201 203 204 205 206 206 205 205 205 204 205 205 206 209 213 215 216 218 222 223 224 225 226 226 224 223 224 223 223 225 227 231 232 229 226 229 233 233 235 236 235 234 236 236 235 234 232 231 232
134 131 135 143 144 154 172 190 194 190 194 195 195 199 203 204 205 205 205 205 205 206 206 206 207 206 207 210 214 215 215 216 219 222 223 224 225 227 226 223 222 223 222 222 225 227 228 227 224 225 230 233 232 233 234 234 236 238 239 239 237 235 233
143 145 144 145 149 157 168 180 187 194 200 201 201 203 204 205 206 205 204 205 205 206 206 206 209 209 209 211 214 215 215 216 218 220 222 224 225 226 226 225 222 222 222 222 223 225 227 228 225 223 226 231 233 233 234 236 238 240 242 243 243 241 238
133 145 148 155 159 159 166 177 184 191 199 202 203 205 206 207 206 205 206 206 205 205 205 206 210 212 211 211 213 215 216 217 218 219 222 224 225 225 226 226 223 221 221 222 222 222 225 228 228 225 223 226 232 235 236 238 242 244 245 246 246 245 243
55 112 145 154 159 161 174 185 182 181 189 195 198 202 205 207 207 207 207 206 206 205 205 207 210 212 212 211 212 215 216 217 219 220 222 225 225 225 225 225 225 223 222 222 221 221 223 226 229 229 225 223 228 233 236 238 242 246 248 248 248 247 246
211 229 186 153 163 169 170 170 168 172 181 189 197 202 202 205 208 209 208 207 207 207 207 208 209 212 213 212 212 215 216 217 220 221 222 224 224 224 223 224 225 225 222 221 221 222 223 225 228 229 229 226 226 230 235 238 240 244 248 249 249 247 245
213 232 266 302 294 127 103 115 142 157 153 172 198 204 200 202 205 208 209 208 208 208 209 210 209 212 216 214 212 213 215 216 219 221 222 223 223 224 224 225 225 224 221 220 221 223 224 225 227 229 230 230 228 228 232 237 240 243 246 249 249 247 246
232 234 239 238 146 128 116 113 136 156 170 183 195 196 195 200 201 204 208 208 209 209 209 211 211 212 215 216 213 212 214 215 217 220 222 222 223 224 226 226 226 225 223 221 221 223 224 226 227 228 230 231 231 230 232 235 238 241 244 247 248 247 246
29 24 101 96 94 99 104 111 135 211 233 214 208 208 209 207 204 205 207 206 209 210 209 211 214 213 215 218 216 213 213 215 216 219 222 222 223 225 226 226 226 226 225 223 221 223 225 227 228 229 230 232 232 233 235 236 237 239 242 245 246 246 245
39 40 49 62 74 87 121 209 230 242 250 243 229 224 220 214 209 209 210 208 208 209 209 212 215 215 216 218 219 216 215 216 217 219 221 223 224 226 226 226 226 227 227 226 225 226 228 228 230 231 232 234 234 236 238 238 238 238 240 242 244 245 245
37 37 41 51 66 87 186 301 325 308 307 308 261 231 224 221 215 211 212 212 210 210 211 214 216 218 217 217 220 220 217 217 218 220 222 224 225 226 227 228 228 228 229 229 230 230 229 229 231 232 233 235 236 238 240 241 240 240 241 242 243 244 246
25 27 30 28 22 1 348 3 3 343 336 321 273 241 235 230 221 215 214 213 213 215 218 220 219 220 220 219 220 223 221 219 219 220 222 223 224 226 228 230 231 230 230 231 232 231 231 230 231 233 234 235 237 239 241 243 243 243 243 244 244 244 244
12 15 15 9 4 0 2 11 360 332 331 324 299 282 265 240 227 220 216 213 215 218 222 227 225 223 222 221 220 222 223 221 220 221 222 223 224 226 228 231 232 231 230 232 232 232 231 231 231 233 235 237 238 240 243 243 244 245 247 248 247 245 244
9 11 7 3 8 12 10 9 356 343 350 338 314 293 250 245 238 231 224 218 219 220 221 228 232 227 224 222 220 221 223 222 220 221 222 223 224 226 228 230 231 231 231 231 231 232 232 232 232 232 234 237 239 241 243 244 245 248 250 250 249 247 247
3 3 3 4 8 6 2 4 357 352 360 331 295 265 236 225 235 239 232 226 227 223 218 224 236 232 225 223 221 220 221 223 222 221 221 223 225 228 230 230 229 229 229 229 229 230 231 231 231 231 232 235 238 240 243 245 247 249 252 254 253 252 252
358 357 359 2 2 358 358 3 350 343 351 338 321 309 277 240 238 254 241 230 231 222 211 215 232 233 224 221 218 216 218 221 220 219 220 223 226 228 228 228 226 225 226 228 227 226 228 230 230 231 233 235 238 241 243 245 247 251 254 256 257 257 257
353 355 355 353 353 351 355 360 347 341 347 348 350 347 316 220 188 221 221 218 221 214 205 206 217 223 218 216 214 211 212 215 216 215 218 221 224 226 224 223 223 223 224 225 225 224 225 228 229 231 233 235 238 241 243 245 247 252 257 260 262 263 262
348 352 351 349 348 346 350 349 340 347 359 1 11 16 19 134 137 183 210 208 210 207 199 198 206 212 207 205 207 206 206 211 216 216 218 219 219 222 222 220 220 221 221 222 223 225 226 226 228 231 234 236 239 240 244 247 248 250 258 263 265 265 266
345 349 347 348 349 347 353 351 339 352 4 343 336 45 62 92 135 194 198 200 221 219 205 196 197 202 198 195 198 201 203 210 214 214 216 215 213 215 219 217 215 217 220 220 220 222 223 224 226 229 231 236 240 242 246 249 247 247 252 256 257 258 260
332 337 335 338 342 345 0 4 355 3 3 333 316 351 57 68 251 182 165 165 175 201 211 201 186 182 191 191 192 200 205 207 208 208 208 206 204 208 211 210 209 212 216 218 218 219 221 223 225 227 229 232 237 239 239 238 237 239 243 246 251 253 254
318 322 324 327 326 330 350 3 3 0 356 349 352 357 353 336 331 179 180 183 172 162 199 204 190 181 188 187 187 198 204 201 200 201 199 195 195 200 201 201 204 208 211 213 213 214 218 220 220 221 221 223 227 229 226 222 225 232 238 242 248 254 257
309 313 320 324 321 319 333 355 19 24 18 17 20 14 342 305 291 102 110 182 184 163 157 174 178 179 181 180 183 190 193 192 192 190 187 190 195 195 194 194 197 202 206 207 208 211 214 214 213 212 213 218 224 227 227 226 228 236 244 249 254 257 262
312 314 317 320 320 324 343 359 17 28 29 30 22 8 1 1 114 125 109 124 168 171 158 158 163 166 168 170 174 179 182 183 184 182 183 190 194 193 193 192 189 186 190 197 201 206 210 212 215 216 219 224 229 233 239 243 245 250 256 261 266 269 271
324 320 313 307 300 301 337 1 1 3 9 34 30 19 355 321 221 164 143 131 138 154 165 170 168 162 162 164 165 170 171 166 167 174 179 178 182 188 192 195 193 188 189 198 207 213 217 222 228 232 235 239 243 247 252 256 261 265 269 273 275 278 279